Estación de Tierras Nobles
Ultimos registro cada 15 minutos 87
| N° | Estación | Fecha / Hora | Temperatura | Humedad | Lluvia | Velocidad | Dirección | Radiación | Presion |
| 87 | Tierras Nobles | 09-05-2026 21:30 | 12 | 58 | 0 | 2,7 | 223 | 0 | 1018,4 |
| 86 | Tierras Nobles | 09-05-2026 21:15 | 12,1 | 57 | 0 | 3,6 | 206 | 0 | 1018,4 |
| 85 | Tierras Nobles | 09-05-2026 21:00 | 12,4 | 56 | 0 | 3,6 | 210 | 0 | 1018,4 |
| 84 | Tierras Nobles | 09-05-2026 20:45 | 12,4 | 56 | 0 | 3,1 | 204 | 0 | 1018,4 |
| 83 | Tierras Nobles | 09-05-2026 20:30 | 12,4 | 57 | 0 | 4,9 | 209 | 0 | 1018,4 |
| 82 | Tierras Nobles | 09-05-2026 20:15 | 12,6 | 56 | 0 | 1,8 | 186 | 0 | 1018,4 |
| 81 | Tierras Nobles | 09-05-2026 20:00 | 12,7 | 57 | 0 | 2,2 | 211 | 0 | 1018,4 |
| 80 | Tierras Nobles | 09-05-2026 19:45 | 12,8 | 57 | 0 | 2,2 | 209 | 0 | 1018,3 |
| 79 | Tierras Nobles | 09-05-2026 19:30 | 12,7 | 58 | 0 | 4 | 198 | 0 | 1018,3 |
| 78 | Tierras Nobles | 09-05-2026 19:15 | 12,8 | 59 | 0 | 4 | 213 | 0 | 1018,1 |
| 77 | Tierras Nobles | 09-05-2026 19:00 | 12,8 | 61 | 0 | 3,6 | 217 | 0 | 1017,9 |
| 76 | Tierras Nobles | 09-05-2026 18:45 | 12,9 | 59 | 0 | 4 | 198 | 0 | 1017,9 |
| 75 | Tierras Nobles | 09-05-2026 18:30 | 13,1 | 59 | 0 | 2,7 | 170 | 0 | 1018 |
| 74 | Tierras Nobles | 09-05-2026 18:15 | 13,1 | 60 | 0 | 3,1 | 193 | 0 | 1018,1 |
| 73 | Tierras Nobles | 09-05-2026 18:00 | 13,3 | 60 | 0 | 3,1 | 190 | 0 | 1018 |
| 72 | Tierras Nobles | 09-05-2026 17:45 | 13,6 | 59 | 0 | 2,7 | 202 | 5 | 1018,1 |
| 71 | Tierras Nobles | 09-05-2026 17:30 | 13,9 | 59 | 0 | 2,2 | 224 | 11 | 1017,9 |
| 70 | Tierras Nobles | 09-05-2026 17:15 | 14,1 | 59 | 0 | 1,8 | 211 | 16 | 1018,1 |
| 69 | Tierras Nobles | 09-05-2026 17:00 | 14,3 | 60 | 0 | 2,2 | 201 | 18 | 1018,2 |
| 68 | Tierras Nobles | 09-05-2026 16:45 | 14,5 | 60 | 0 | 4,5 | 205 | 23 | 1018,5 |
| 67 | Tierras Nobles | 09-05-2026 16:30 | 14,7 | 61 | 0 | 2,2 | 207 | 23 | 1018,5 |
| 66 | Tierras Nobles | 09-05-2026 16:15 | 14,8 | 59 | 0 | 2,2 | 206 | 25 | 1018,7 |
| 65 | Tierras Nobles | 09-05-2026 16:00 | 14,8 | 59 | 0 | 4,5 | 195 | 25 | 1018,7 |
| 64 | Tierras Nobles | 09-05-2026 15:45 | 14,8 | 59 | 0 | 2,7 | 198 | 32 | 1018,7 |
| 63 | Tierras Nobles | 09-05-2026 15:30 | 15,1 | 59 | 0 | 5,4 | 188 | 58 | 1018,8 |
| 62 | Tierras Nobles | 09-05-2026 15:15 | 15,1 | 60 | 0 | 4 | 201 | 42 | 1018,8 |
| 61 | Tierras Nobles | 09-05-2026 15:00 | 15 | 60 | 0 | 3,1 | 205 | 39 | 1019 |
| 60 | Tierras Nobles | 09-05-2026 14:45 | 15,1 | 58 | 0 | 2,7 | 213 | 137 | 1019,1 |
| 59 | Tierras Nobles | 09-05-2026 14:30 | 14,9 | 58 | 0 | 3,1 | 198 | 469 | 1019,4 |
| 58 | Tierras Nobles | 09-05-2026 14:15 | 14,9 | 57 | 0 | 2,7 | 234 | 496 | 1019,4 |
| 57 | Tierras Nobles | 09-05-2026 14:00 | 14,7 | 57 | 0 | 3,6 | 189 | 517 | 1019,6 |
| 56 | Tierras Nobles | 09-05-2026 13:45 | 14,7 | 55 | 0 | 3,1 | 208 | 533 | 1019,7 |
| 55 | Tierras Nobles | 09-05-2026 13:30 | 14,7 | 55 | 0 | 2,7 | 209 | 547 | 1020 |
| 54 | Tierras Nobles | 09-05-2026 13:15 | 14,5 | 59 | 0 | 2,2 | 243 | 555 | 1020,2 |
| 53 | Tierras Nobles | 09-05-2026 13:00 | 14,3 | 56 | 0 | 3,1 | 194 | 538 | 1020,5 |
| 52 | Tierras Nobles | 09-05-2026 12:45 | 14,1 | 59 | 0 | 2,2 | 215 | 563 | 1020,8 |
| 51 | Tierras Nobles | 09-05-2026 12:30 | 13,7 | 57 | 0 | 4,9 | 194 | 561 | 1020,9 |
| 50 | Tierras Nobles | 09-05-2026 12:15 | 13,4 | 60 | 0 | 3,1 | 207 | 557 | 1021,1 |
| 49 | Tierras Nobles | 09-05-2026 12:00 | 12,9 | 60 | 0 | 3,6 | 203 | 548 | 1021,5 |
| 48 | Tierras Nobles | 09-05-2026 11:45 | 12,7 | 59 | 0 | 6,3 | 202 | 536 | 1021,5 |
| 47 | Tierras Nobles | 09-05-2026 11:30 | 12,6 | 60 | 0 | 4 | 197 | 520 | 1021,6 |
| 46 | Tierras Nobles | 09-05-2026 11:15 | 12,2 | 62 | 0 | 4,5 | 200 | 501 | 1021,6 |
| 45 | Tierras Nobles | 09-05-2026 11:00 | 11,8 | 62 | 0 | 4,5 | 202 | 475 | 1021,7 |
| 44 | Tierras Nobles | 09-05-2026 10:45 | 11,4 | 64 | 0 | 3,6 | 197 | 452 | 1021,7 |
| 43 | Tierras Nobles | 09-05-2026 10:30 | 10,8 | 63 | 0 | 1,8 | 206 | 415 | 1021,9 |
| 42 | Tierras Nobles | 09-05-2026 10:15 | 10,5 | 64 | 0 | 5,8 | 197 | 396 | 1021,9 |
| 41 | Tierras Nobles | 09-05-2026 10:00 | 10,1 | 64 | 0 | 4,9 | 196 | 357 | 1022,1 |
| 40 | Tierras Nobles | 09-05-2026 09:45 | 9,7 | 66 | 0 | 3,1 | 227 | 322 | 1022,2 |
| 39 | Tierras Nobles | 09-05-2026 09:30 | 9,2 | 68 | 0 | 4,5 | 202 | 281 | 1022,4 |
| 38 | Tierras Nobles | 09-05-2026 09:15 | 8,8 | 69 | 0 | 3,1 | 207 | 243 | 1022,2 |
| 37 | Tierras Nobles | 09-05-2026 09:00 | 8,4 | 69 | 0 | 2,7 | 207 | 195 | 1022,2 |
| 36 | Tierras Nobles | 09-05-2026 08:45 | 8 | 70 | 0 | 2,2 | 194 | 142 | 1022,3 |
| 35 | Tierras Nobles | 09-05-2026 08:30 | 7,5 | 70 | 0 | 1,8 | 215 | 23 | 1022,2 |
| 34 | Tierras Nobles | 09-05-2026 08:15 | 7,3 | 71 | 0 | 1,8 | 207 | 16 | 1022 |
| 33 | Tierras Nobles | 09-05-2026 08:00 | 7,2 | 71 | 0 | 3,6 | 213 | 12 | 1021,9 |
| 32 | Tierras Nobles | 09-05-2026 07:45 | 7,2 | 71 | 0 | 3,1 | 186 | 9 | 1022 |
| 31 | Tierras Nobles | 09-05-2026 07:30 | 7,2 | 71 | 0 | 5,8 | 203 | 0 | 1021,9 |
| 30 | Tierras Nobles | 09-05-2026 07:15 | 7,1 | 71 | 0 | 2,2 | 203 | 0 | 1022 |
| 29 | Tierras Nobles | 09-05-2026 07:00 | 6,9 | 72 | 0 | 1,8 | 205 | 0 | 1021,8 |
| 28 | Tierras Nobles | 09-05-2026 06:45 | 6,8 | 73 | 0 | 3,6 | 212 | 0 | 1021,8 |
| 27 | Tierras Nobles | 09-05-2026 06:30 | 6,8 | 73 | 0 | 2,2 | 203 | 0 | 1022 |
| 26 | Tierras Nobles | 09-05-2026 06:15 | 7,1 | 73 | 0 | 1,8 | 175 | 0 | 1022,1 |
| 25 | Tierras Nobles | 09-05-2026 06:00 | 7 | 74 | 0 | 3,6 | 205 | 0 | 1022,2 |
| 24 | Tierras Nobles | 09-05-2026 05:45 | 7,1 | 74 | 0 | 1,8 | 140 | 0 | 1022,5 |
| 23 | Tierras Nobles | 09-05-2026 05:30 | 7,1 | 74 | 0 | 3,1 | 188 | 0 | 1022,4 |
| 22 | Tierras Nobles | 09-05-2026 05:15 | 7,1 | 74 | 0 | 1,8 | 209 | 0 | 1022,4 |
| 21 | Tierras Nobles | 09-05-2026 05:00 | 7,3 | 74 | 0 | 1,3 | 209 | 0 | 1022,6 |
| 20 | Tierras Nobles | 09-05-2026 04:45 | 7,2 | 74 | 0 | 1,3 | 207 | 0 | 1022,4 |
| 19 | Tierras Nobles | 09-05-2026 04:30 | 7,3 | 74 | 0 | 1,3 | 199 | 0 | 1022,4 |
| 18 | Tierras Nobles | 09-05-2026 04:15 | 7,5 | 74 | 0 | 2,2 | 207 | 0 | 1022,5 |
| 17 | Tierras Nobles | 09-05-2026 04:00 | 7,6 | 74 | 0 | 2,2 | 201 | 0 | 1022,5 |
| 16 | Tierras Nobles | 09-05-2026 03:45 | 7,6 | 75 | 0 | 1,3 | 132 | 0 | 1022,5 |
| 15 | Tierras Nobles | 09-05-2026 03:30 | 7,7 | 75 | 0 | 2,7 | 180 | 0 | 1022,6 |
| 14 | Tierras Nobles | 09-05-2026 03:15 | 7,7 | 76 | 0 | 4,5 | 180 | 0 | 1022,7 |
| 13 | Tierras Nobles | 09-05-2026 03:00 | 7,8 | 76 | 0 | 2,2 | 180 | 0 | 1022,8 |
| 12 | Tierras Nobles | 09-05-2026 02:45 | 7,9 | 76 | 0 | 2,2 | 205 | 0 | 1022,9 |
| 11 | Tierras Nobles | 09-05-2026 02:30 | 8 | 76 | 0 | 2,2 | 209 | 0 | 1023,1 |
| 10 | Tierras Nobles | 09-05-2026 02:15 | 8,1 | 76 | 0 | 1,8 | 153 | 0 | 1023 |
| 9 | Tierras Nobles | 09-05-2026 02:00 | 8,1 | 76 | 0 | 3,6 | 213 | 0 | 1023,2 |
| 8 | Tierras Nobles | 09-05-2026 01:45 | 8,2 | 76 | 0 | 1,8 | 228 | 0 | 1023,2 |
| 7 | Tierras Nobles | 09-05-2026 01:30 | 8,2 | 76 | 0 | 1,8 | 197 | 0 | 1023,3 |
| 6 | Tierras Nobles | 09-05-2026 01:15 | 8,3 | 76 | 0 | 4 | 208 | 0 | 1023,1 |
| 5 | Tierras Nobles | 09-05-2026 01:00 | 8,4 | 76 | 0 | 1,3 | 196 | 0 | 1023,2 |
| 4 | Tierras Nobles | 09-05-2026 00:45 | 8,5 | 76 | 0 | 3,6 | 209 | 0 | 1023,1 |
| 3 | Tierras Nobles | 09-05-2026 00:30 | 8,7 | 76 | 0 | 2,2 | 205 | 0 | 1022,9 |
| 2 | Tierras Nobles | 09-05-2026 00:15 | 8,7 | 76 | 0 | 1,3 | 201 | 0 | 1022,8 |
| 1 | Tierras Nobles | 09-05-2026 00:00 | 8,8 | 75 | 0 | 2,2 | 214 | 0 | 1022,9 |